Time,TemperatureF,DewpointF,PressureIn,WindDirection,WindDirectionDegrees,WindSpeedMPH,WindSpeedGustMPH,Humidity,HourlyPrecipIn,Conditions,Clouds,dailyrainin,SoftwareType,DateUTC
2013-07-19 00:01:00,76.3,74.0,30.04,SSW,200,0.0,1.0,92,0.00,,,0.00,weatherlink.com 1.10,2013-07-19 04:01:00,
2013-07-19 00:16:00,76.1,74.0,30.05,SSW,200,0.0,1.0,93,0.00,,,0.00,weatherlink.com 1.10,2013-07-19 04:16:00,
2013-07-19 00:31:00,75.7,74.0,30.04,SSW,197,0.0,2.0,93,0.00,,,0.00,weatherlink.com 1.10,2013-07-19 04:31:00,
2013-07-19 00:46:00,75.4,74.0,30.04,SSW,202,0.0,4.0,94,0.00,,,0.00,weatherlink.com 1.10,2013-07-19 04:46:00,
2013-07-19 01:01:00,75.2,73.0,30.05,SSW,209,0.0,4.0,94,0.00,,,0.00,weatherlink.com 1.10,2013-07-19 05:01:00,
2013-07-19 01:16:00,75.1,73.0,30.04,SSW,201,0.0,2.0,94,0.00,,,0.00,weatherlink.com 1.10,2013-07-19 05:16:00,
2013-07-19 01:31:00,74.9,73.0,30.04,WSW,254,0.0,2.0,94,0.00,,,0.00,weatherlink.com 1.10,2013-07-19 05:31:00,
2013-07-19 01:46:00,74.8,73.0,30.04,WSW,254,0.0,2.0,94,0.00,,,0.00,weatherlink.com 1.10,2013-07-19 05:46:00,
2013-07-19 02:01:00,74.6,73.0,30.03,WSW,254,0.0,1.0,95,0.00,,,0.00,weatherlink.com 1.10,2013-07-19 06:01:00,
2013-07-19 02:16:00,74.4,73.0,30.03,WSW,254,0.0,0.0,94,0.00,,,0.00,weatherlink.com 1.10,2013-07-19 06:16:00,
2013-07-19 02:31:00,74.2,72.0,30.02,WSW,254,0.0,0.0,94,0.00,,,0.00,weatherlink.com 1.10,2013-07-19 06:31:00,
2013-07-19 02:46:00,74.1,73.0,30.02,WSW,254,0.0,0.0,95,0.00,,,0.00,weatherlink.com 1.10,2013-07-19 06:46:00,
2013-07-19 03:01:00,74.0,73.0,30.01,WSW,254,0.0,0.0,95,0.00,,,0.00,weatherlink.com 1.10,2013-07-19 07:01:00,
2013-07-19 03:16:00,73.8,72.0,30.01,WSW,254,0.0,1.0,95,0.00,,,0.00,weatherlink.com 1.10,2013-07-19 07:16:00,
2013-07-19 03:31:00,73.6,72.0,30.01,SSE,159,0.0,2.0,95,0.00,,,0.00,weatherlink.com 1.10,2013-07-19 07:31:00,
2013-07-19 03:46:00,73.4,72.0,30.01,SW,218,0.0,3.0,95,0.00,,,0.00,weatherlink.com 1.10,2013-07-19 07:46:00,
2013-07-19 04:01:00,73.3,72.0,30.01,SSW,205,0.0,4.0,95,0.00,,,0.00,weatherlink.com 1.10,2013-07-19 08:01:00,
2013-07-19 04:16:00,73.3,72.0,30.01,SSW,212,0.0,3.0,95,0.00,,,0.00,weatherlink.com 1.10,2013-07-19 08:16:00,
2013-07-19 04:31:00,73.2,72.0,30.01,SSW,212,0.0,1.0,95,0.00,,,0.00,weatherlink.com 1.10,2013-07-19 08:31:00,
2013-07-19 04:46:00,73.0,72.0,30.01,SSW,212,0.0,0.0,95,0.00,,,0.00,weatherlink.com 1.10,2013-07-19 08:46:00,
2013-07-19 05:01:00,72.9,72.0,30.01,SSW,212,0.0,0.0,96,0.00,,,0.00,weatherlink.com 1.10,2013-07-19 09:01:00,
2013-07-19 05:16:00,72.8,72.0,30.01,SSW,212,0.0,1.0,96,0.00,,,0.00,weatherlink.com 1.10,2013-07-19 09:16:00,
2013-07-19 05:31:00,72.7,72.0,30.02,SSW,212,0.0,0.0,96,0.00,,,0.00,weatherlink.com 1.10,2013-07-19 09:31:00,
2013-07-19 05:46:00,72.5,71.0,30.02,SSW,212,0.0,0.0,96,0.00,,,0.00,weatherlink.com 1.10,2013-07-19 09:46:00,
2013-07-19 06:01:00,72.4,71.0,30.02,SSW,212,0.0,1.0,96,0.00,,,0.00,weatherlink.com 1.10,2013-07-19 10:01:00,
2013-07-19 06:16:00,72.2,71.0,30.02,SW,218,0.0,3.0,96,0.00,,,0.00,weatherlink.com 1.10,2013-07-19 10:16:00,
2013-07-19 06:31:00,72.1,71.0,30.02,SSW,207,1.0,2.0,96,0.00,,,0.00,weatherlink.com 1.10,2013-07-19 10:31:00,
2013-07-19 06:47:00,72.1,71.0,30.02,WSW,248,0.0,2.0,96,0.00,,,0.00,weatherlink.com 1.10,2013-07-19 10:47:00,
2013-07-19 07:01:00,72.1,71.0,30.02,SW,229,1.0,3.0,96,0.00,,,0.00,weatherlink.com 1.10,2013-07-19 11:01:00,
2013-07-19 07:16:00,72.2,71.0,30.02,SW,225,0.0,2.0,96,0.00,,,0.00,weatherlink.com 1.10,2013-07-19 11:16:00,
2013-07-19 07:31:00,72.4,71.0,30.02,SW,231,0.0,3.0,96,0.00,,,0.00,weatherlink.com 1.10,2013-07-19 11:31:00,
2013-07-19 07:46:00,72.7,72.0,30.03,SW,223,0.0,3.0,97,0.00,,,0.00,weatherlink.com 1.10,2013-07-19 11:46:00,
2013-07-19 08:01:00,73.3,72.0,30.04,WSW,253,0.0,5.0,97,0.00,,,0.00,weatherlink.com 1.10,2013-07-19 12:01:00,
2013-07-19 08:16:00,74.0,73.0,30.04,SW,234,0.0,7.0,97,0.00,,,0.00,weatherlink.com 1.10,2013-07-19 12:16:00,
2013-07-19 08:31:00,74.5,74.0,30.04,SW,229,0.0,7.0,97,0.00,,,0.00,weatherlink.com 1.10,2013-07-19 12:31:00,
2013-07-19 08:46:00,74.9,74.0,30.04,SW,236,0.0,7.0,97,0.00,,,0.00,weatherlink.com 1.10,2013-07-19 12:46:00,
2013-07-19 09:01:00,75.3,74.0,30.04,West,273,0.0,6.0,97,0.00,,,0.00,weatherlink.com 1.10,2013-07-19 13:01:00,
2013-07-19 09:16:00,75.8,75.0,30.04,South,174,2.0,8.0,97,0.00,,,0.00,weatherlink.com 1.10,2013-07-19 13:16:00,
2013-07-19 09:31:00,76.5,75.0,30.04,West,262,1.0,8.0,95,0.00,,,0.00,weatherlink.com 1.10,2013-07-19 13:31:00,
2013-07-19 09:46:00,77.4,75.0,30.04,South,186,2.0,8.0,93,0.00,,,0.00,weatherlink.com 1.10,2013-07-19 13:46:00,
2013-07-19 10:01:00,78.3,76.0,30.04,SSW,200,1.0,6.0,92,0.00,,,0.00,weatherlink.com 1.10,2013-07-19 14:01:00,
2013-07-19 10:16:00,79.1,76.0,30.04,WNW,298,0.0,8.0,90,0.00,,,0.00,weatherlink.com 1.10,2013-07-19 14:16:00,
2013-07-19 10:31:00,79.9,76.0,30.04,West,273,3.0,8.0,88,0.00,,,0.00,weatherlink.com 1.10,2013-07-19 14:31:00,
2013-07-19 10:46:00,80.8,76.0,30.04,West,278,3.0,7.0,85,0.00,,,0.00,weatherlink.com 1.10,2013-07-19 14:46:00,
2013-07-19 11:01:00,81.6,77.0,30.04,WSW,240,1.0,8.0,85,0.00,,,0.00,weatherlink.com 1.10,2013-07-19 15:01:00,
2013-07-19 11:17:00,82.7,77.0,30.04,SW,227,2.0,9.0,82,0.00,,,0.00,weatherlink.com 1.10,2013-07-19 15:17:00,
2013-07-19 11:32:00,82.6,77.0,30.04,SSW,209,5.0,6.0,84,0.00,,,0.00,weatherlink.com 1.10,2013-07-19 15:32:00,
2013-07-19 11:47:00,83.3,77.0,30.04,SW,223,1.0,6.0,82,0.00,,,0.00,weatherlink.com 1.10,2013-07-19 15:47:00,
2013-07-19 12:02:00,82.8,78.0,30.03,West,261,1.0,7.0,84,0.00,,,0.00,weatherlink.com 1.10,2013-07-19 16:02:00,
2013-07-19 12:17:00,83.1,77.0,30.03,West,275,1.0,6.0,82,0.00,,,0.00,weatherlink.com 1.10,2013-07-19 16:17:00,
2013-07-19 12:32:00,83.4,77.0,30.02,SSW,213,3.0,6.0,81,0.00,,,0.00,weatherlink.com 1.10,2013-07-19 16:32:00,
2013-07-19 12:47:00,83.6,78.0,30.02,SSW,205,0.0,10.0,82,0.00,,,0.00,weatherlink.com 1.10,2013-07-19 16:47:00,
2013-07-19 13:02:00,85.2,78.0,30.02,West,275,2.0,10.0,78,0.00,,,0.00,weatherlink.com 1.10,2013-07-19 17:02:00,
2013-07-19 13:17:00,85.7,77.0,30.02,West,264,2.0,11.0,76,0.00,,,0.00,weatherlink.com 1.10,2013-07-19 17:17:00,
2013-07-19 13:32:00,85.4,78.0,30.01,SSW,197,2.0,9.0,78,0.00,,,0.00,weatherlink.com 1.10,2013-07-19 17:32:00,
2013-07-19 13:47:00,83.2,77.0,30.01,SSE,159,1.0,7.0,81,0.00,,,0.00,weatherlink.com 1.10,2013-07-19 17:47:00,
2013-07-19 14:02:00,86.1,78.0,30.00,South,171,7.0,8.0,76,0.00,,,0.00,weatherlink.com 1.10,2013-07-19 18:02:00,
2013-07-19 14:17:00,87.5,77.0,29.99,SW,228,1.0,10.0,72,0.00,,,0.00,weatherlink.com 1.10,2013-07-19 18:17:00,
2013-07-19 14:32:00,86.9,77.0,29.99,South,181,3.0,9.0,73,0.00,,,0.00,weatherlink.com 1.10,2013-07-19 18:32:00,
2013-07-19 14:47:00,87.4,78.0,29.98,SE,142,2.0,9.0,74,0.00,,,0.00,weatherlink.com 1.10,2013-07-19 18:47:00,
2013-07-19 15:02:00,87.6,78.0,29.98,South,190,2.0,11.0,74,0.00,,,0.00,weatherlink.com 1.10,2013-07-19 19:02:00,
2013-07-19 15:17:00,86.6,78.0,29.97,SW,219,3.0,10.0,76,0.00,,,0.00,weatherlink.com 1.10,2013-07-19 19:17:00,
2013-07-19 15:32:00,85.9,78.0,29.97,SW,221,6.0,8.0,77,0.00,,,0.00,weatherlink.com 1.10,2013-07-19 19:32:00,
2013-07-19 15:47:00,86.2,77.0,29.95,WNW,292,1.0,8.0,75,0.00,,,0.00,weatherlink.com 1.10,2013-07-19 19:47:00,
2013-07-19 16:02:00,86.2,77.0,29.95,SSE,159,5.0,12.0,75,0.00,,,0.00,weatherlink.com 1.10,2013-07-19 20:02:00,
2013-07-19 16:17:00,86.0,78.0,29.95,SSW,200,6.0,8.0,76,0.00,,,0.00,weatherlink.com 1.10,2013-07-19 20:17:00,
2013-07-19 16:32:00,86.1,78.0,29.94,South,191,2.0,12.0,76,0.00,,,0.00,weatherlink.com 1.10,2013-07-19 20:32:00,
2013-07-19 16:47:00,85.9,77.0,29.94,SSW,212,10.0,12.0,75,0.00,,,0.00,weatherlink.com 1.10,2013-07-19 20:47:00,
2013-07-19 17:02:00,84.9,77.0,29.95,WSW,255,3.0,12.0,77,0.00,,,0.00,weatherlink.com 1.10,2013-07-19 21:02:00,
2013-07-19 17:17:00,84.3,78.0,29.94,SSW,202,5.0,9.0,80,0.00,,,0.00,weatherlink.com 1.10,2013-07-19 21:17:00,
2013-07-19 17:32:00,84.6,78.0,29.94,SE,144,2.0,8.0,80,0.00,,,0.00,weatherlink.com 1.10,2013-07-19 21:32:00,
2013-07-19 17:47:00,85.1,78.0,29.94,WSW,242,0.0,10.0,79,0.00,,,0.00,weatherlink.com 1.10,2013-07-19 21:47:00,
2013-07-19 18:02:00,84.9,76.0,29.94,South,171,0.0,9.0,75,0.00,,,0.00,weatherlink.com 1.10,2013-07-19 22:02:00,
2013-07-19 18:17:00,83.7,77.0,29.93,SSW,195,3.0,8.0,80,0.00,,,0.00,weatherlink.com 1.10,2013-07-19 22:17:00,
2013-07-19 18:32:00,83.2,77.0,29.94,WSW,247,4.0,9.0,81,0.00,,,0.00,weatherlink.com 1.10,2013-07-19 22:32:00,
2013-07-19 18:47:00,82.6,76.0,29.93,SW,216,3.0,7.0,81,0.00,,,0.00,weatherlink.com 1.10,2013-07-19 22:47:00,
2013-07-19 19:02:00,82.5,77.0,29.94,SW,228,0.0,9.0,82,0.00,,,0.00,weatherlink.com 1.10,2013-07-19 23:02:00,
2013-07-19 19:17:00,81.8,77.0,29.94,South,181,1.0,6.0,84,0.00,,,0.00,weatherlink.com 1.10,2013-07-19 23:17:00,
2013-07-19 19:47:00,81.6,76.0,29.94,West,278,0.0,5.0,84,0.00,,,0.00,weatherlink.com 1.10,2013-07-19 23:47:00,
2013-07-19 20:02:00,81.6,76.0,29.94,SW,215,0.0,5.0,84,0.00,,,0.00,weatherlink.com 1.10,2013-07-20 00:02:00,
2013-07-19 20:17:00,81.2,76.0,29.94,SW,223,0.0,4.0,84,0.00,,,0.00,weatherlink.com 1.10,2013-07-20 00:17:00,
2013-07-19 20:32:00,80.7,76.0,29.94,SSW,208,0.0,4.0,84,0.00,,,0.00,weatherlink.com 1.10,2013-07-20 00:32:00,
2013-07-19 20:47:00,80.3,76.0,29.93,SW,225,0.0,4.0,85,0.00,,,0.00,weatherlink.com 1.10,2013-07-20 00:47:00,
2013-07-19 21:02:00,79.7,75.0,29.93,SW,219,0.0,1.0,86,0.00,,,0.00,weatherlink.com 1.10,2013-07-20 01:02:00,
2013-07-19 21:17:00,79.2,75.0,29.94,SW,219,2.0,2.0,86,0.00,,,0.00,weatherlink.com 1.10,2013-07-20 01:17:00,
2013-07-19 21:32:00,78.7,75.0,29.95,West,265,0.0,2.0,87,0.00,,,0.00,weatherlink.com 1.10,2013-07-20 01:32:00,
2013-07-19 21:47:00,78.2,74.0,29.96,West,271,0.0,2.0,88,0.00,,,0.00,weatherlink.com 1.10,2013-07-20 01:47:00,
2013-07-19 22:02:00,77.7,74.0,29.97,West,271,0.0,1.0,88,0.00,,,0.00,weatherlink.com 1.10,2013-07-20 02:02:00,
2013-07-19 22:17:00,77.4,74.0,29.97,West,260,0.0,2.0,89,0.00,,,0.00,weatherlink.com 1.10,2013-07-20 02:17:00,
2013-07-19 22:32:00,77.0,74.0,29.97,WSW,256,0.0,2.0,90,0.00,,,0.00,weatherlink.com 1.10,2013-07-20 02:32:00,
2013-07-19 22:47:00,76.7,74.0,29.97,SW,236,0.0,3.0,90,0.00,,,0.00,weatherlink.com 1.10,2013-07-20 02:47:00,
2013-07-19 23:02:00,76.3,73.0,29.98,SSW,209,0.0,4.0,90,0.00,,,0.00,weatherlink.com 1.10,2013-07-20 03:02:00,
2013-07-19 23:17:00,76.0,73.0,29.98,SW,230,0.0,2.0,91,0.00,,,0.00,weatherlink.com 1.10,2013-07-20 03:17:00,
2013-07-19 23:32:00,75.8,73.0,29.97,West,264,1.0,5.0,91,0.00,,,0.00,weatherlink.com 1.10,2013-07-20 03:32:00,
2013-07-19 23:47:00,75.3,73.0,29.97,SSW,212,1.0,4.0,92,0.00,,,0.00,weatherlink.com 1.10,2013-07-20 03:47:00,